Location: Eitze
(52.9840°N, 9.6894°E)
Time: 16:30:57
(UTC+00:00)

Cosmos 1470 - Pass Details

Date: 19 May 2025
Orbit: 455 x 466 km, 82.5° (Epoch: 17 June)

Event Time Altitude Azimuth Distance (km) Brightness Sun altitude
Rises 23:02:12 0° 344° (NNW) 2,520 7.8 -17.0°
Reaches altitude 10° 23:04:20 10° 339° (NNW) 1,639 6.4 -17.0°
Maximum altitude 23:07:47 48° 265° (W) 621 3.0 -17.0°
Enters shadow 23:08:49 36° 216° (SW) 765 3.1 -17.0°
